Regional Weather Roundup
Issued by NWS

Home | Current Version | Previous Version | Graphics & Text | Print | Product List | Glossary On
Versions: 1 2 3 4 5 6 7 8 9 10 11 12 13 14 15 16 17 18 19 20 21 22 23 24 25 26 27
000
ASUS45 KTFX 221310
RWRMT
MONTANA REGIONAL WEATHER ROUNDUP
NATIONAL WEATHER SERVICE GREAT FALLS MT
700 AM MDT MON MAY 22 2017

NOTE: "FAIR" INDICATES FEW OR NO CLOUDS BELOW 12000 FEET WITH NO
SIGNIFICANT WEATHER AND/OR OBSTRUCTIONS TO VISIBILITY.

MTZ001>007-043-221400-
WEST OF THE DIVIDE

CITY           SKY/WX    TMP DP  RH WIND       PRES   REMARKS
KALISPELL      CLEAR     44  43  96 NW3       30.22R
MISSOULA       PTCLDY    43  41  93 CALM      30.27R
BUTTE          CLOUDY    36  32  85 S3        30.30R
MULLAN PASS    CLEAR     49  36  61 NW6       30.30S
ANACONDA         N/A     43  34  70 CALM      30.28R
DEER LODGE       N/A     41  36  81 CALM      30.30S
EUREKA           N/A     39  37  93 CALM      30.25R
HAMILTON         N/A     50  36  57 S7        30.27R
LIBBY            N/A     39  39 100 CALM      30.23R
RONAN            N/A     43  38  82 NE1       30.23S
$$

MTZ008-052>055-221400-
SOUTHWEST MONTANA

CITY           SKY/WX    TMP DP  RH WIND       PRES   REMARKS
BOZEMAN        CLOUDY    46  38  73 S7        30.25R
DILLON         CLEAR     39  32  76 MISG      30.28R
W YELLOWSTONE  CLOUDY    30  28  93 CALM      30.33S
ENNIS          SUNNY     41  36  81 CALM      30.33R
THREE FORKS      N/A     39  38  97 CALM      30.21R
$$

MTZ009-010-012-014-046-048-049-054-221400-
EAST SLOPES AND CENTRAL MONTANA

CITY           SKY/WX    TMP DP  RH WIND       PRES   REMARKS
CUT BANK       CLOUDY    49  37  63 W10       30.20R
GREAT FALLS    CLOUDY    50  42  74 SW9       30.20R
HELENA         MOSUNNY   46  41  82 CALM      30.22S
AUGUSTA          N/A     51  38  61 NW8       30.23R
BOWMANS CRNR     N/A     49  38  65 NW10      30.21S
CHOTEAU          N/A     50  41  71 SW7       30.23S
FAIRFIELD      PTSUNNY   49  42  77 W5        30.20R
POWER          PTSUNNY   49  40  71 W8        30.19R
RAYNESFORD     LGT RAIN  52  41  65 SW5       30.21R
ULM            PTSUNNY   50  44  81 CALM      30.21R
$$

MTZ011-013-016-021-045-047-050-051-221400-
NORTH CENTRAL MONTANA

CITY           SKY/WX    TMP DP  RH WIND       PRES   REMARKS
HAVRE          CLOUDY    51  41  68 W5        30.14R
LEWISTOWN      CLOUDY    51  39  63 W9        30.17R
N BAR RANCH    CLOUDY    52  36  54 NW13G21   30.17R
CHINOOK          N/A     45  43  93 NW6       30.14R
DENTON         PTSUNNY   58  35  42 W23G43    30.12R
FORT BENTON      N/A    N/A N/A N/A MISG      30.19R
GEYSER         PTSUNNY   57  35  43 NW15G25   30.20R
JUDITH GAP     PTSUNNY   53  35  51 NW30G40   30.17R
STANFORD       PTSUNNY   53  37  54 NW9       30.20R
WINIFRED         N/A     51  39  63 W8        30.14R
$$

MTZ017>020-022>027-061-062-221400-
NORTHEAST MONTANA

CITY           SKY/WX    TMP DP  RH WIND       PRES   REMARKS
GLASGOW        MOSUNNY   50  43  77 MISG      30.09R
JORDAN           N/A     48  42  80 NE7       30.10R
SIDNEY         PTSUNNY   47  41  80 NW13      30.02R
WOLF POINT     PTSUNNY   51  42  71 N12       30.06R
MALTA          MOSUNNY   48  45  87 W5        30.12R
PLENTYWOOD       N/A     48  43  81 NW10      30.03R
POPLAR           N/A     46  43  87 N7        30.05R
$$

MTZ028>42-056>058-221400-
SOUTHCENTRAL AND SOUTHEAST MONTANA

CITY           SKY/WX    TMP DP  RH WIND       PRES   REMARKS
BAKER          MOSUNNY   44  42  93 NW6       30.04R
BILLINGS       CLOUDY    52  40  63 NE8       30.13R
LIVINGSTON     CLOUDY    48  39  71 NW9       30.22R
MILES CITY     LGT RAIN  47  44  90 NW8       30.08R
BIG TIMBER     CLOUDY    52  36  54 SW7       30.23S
FORSYTH          N/A     48  46  93 CALM      30.09R
LAUREL           N/A     56  35  45 W10       30.11F
ROUNDUP          N/A     51  38  61 NW2       30.03R
$$

REGIONAL REPORTS...DAKOTAS

CITY           SKY/WX    TMP DP  RH WIND       PRES   REMARKS
WILLISTON      CLOUDY    49  43  80 N8        30.01R
MINOT          SUNNY     52  41  66 NW9       29.96R
DICKINSON      PTSUNNY   45  40  82 W13       29.95R
BEACH            N/A     46  46 100 NW10      30.05R
TIOGA          PTSUNNY   48  39  71 N7        30.01R
WATFORD CITY     N/A     48  41  76 N6G12     29.98R
BISMARCK       CLOUDY    50  37  61 NE5       29.94R
GRAND FORKS    CLOUDY    51  45  79 NW15      29.83S
FARGO          CLOUDY    49  43  80 W9G23     29.84F
BUFFALO SD       N/A     46  44  93 W9        29.95R
RAPID CITY     PTSUNNY   48  42  80 N10       30.01R
$$

REGIONAL REPORTS...WYOMING/IDAHO/WASHINGTON

CITY           SKY/WX    TMP DP  RH WIND       PRES   REMARKS
GILLETTE       CLOUDY    49  43  80 W9        30.08S
SHERIDAN       LGT RAIN  50  42  74 W12       30.12R
BUFFALO WY     LGT RAIN  46  41  82 CALM      30.14R
CODY           CLOUDY    53  33  46 N5        30.20R
YELLOWSTONE LA   N/A     30  28  92 CALM      30.35R
IDAHO FALLS    PTCLDY    39  34  82 CALM      30.28R
SALMON         PTCLDY    39  36  87 CALM      30.30R
BOISE          CLEAR     53  45  74 SE9       30.20R
SPOKANE        PTCLDY    54  44  69 S7        30.18S
$$

REGIONAL REPORTS...ALBERTA

CITY           SKY/WX    TMP DP  RH WIND       PRES   REMARKS
EDMONTON       SUNNY     57  39  51 S7        30.14S
CALGARY        PTSUNNY   55  30  38 N12       30.20R
LETHBRIDGE     PTSUNNY   48  41  76 SW8       30.18S
MEDICINE HAT   MOSUNNY   54  41  62 N3        30.15R
WATERTON GATE    N/A     46  34  61 SW8         N/A
CARDSTON         N/A     46  36  66 S5          N/A
MILK RIVER       N/A     50  41  71 NW8         N/A
$$

REGIONAL REPORTS...SASKATCHEWAN

CITY           SKY/WX    TMP DP  RH WIND       PRES   REMARKS
SWIFT CURRENT  SUNNY     48  41  76 N8        30.14R
REGINA         MOSUNNY   48  45  87 N10       30.05R
SASKATOON      MOSUNNY   48  43  81 N9        30.15R
VAL MARIE        N/A     46  41  81 N9          N/A
ROCKGLEN         N/A     45  41  87 NW12        N/A
$$




USA.gov is the U.S. government's official web portal to all federal, state and local government web resources and services.